Moosic, PA

7:08 PM EST on February 06, 2016 (GMT -0500)
Wilkes-Barre-Scranton International

Weather History for KAVP - October, 2012

Change the Weather History Date:

Thursday, October 18, 2012

  Actual Average Record
Temperature  
Mean Temperature 55 °F 50 °F  
Max Temperature 65 °F 60 °F 80 °F (1963)
Min Temperature 44 °F 40 °F 24 °F (1972)
Degree Days  
Heating Degree Days 10 15  
Month to date heating degree days 209 219  
Since 1 July heating degree days 326 381  
Cooling Degree Days 0 0  
Month to date cooling degree days 3 0  
Year to date cooling degree days 864 576  
Growing Degree Days 4 (Base 50)    
Moisture  
Dew Point 46 °F    
Average Humidity 65    
Maximum Humidity 86    
Minimum Humidity 44    
Precipitation  
Precipitation 0.16 in 0.11 in 1.85 in (1927)
Month to date precipitation 1.29 2.04  
Year to date precipitation 28.64 31.14  
Sea Level Pressure  
Sea Level Pressure 29.93 in    
Wind  
Wind Speed 7 mph (SSE)    
Max Wind Speed 18 mph    
Max Gust Speed 33 mph    
Visibility 9 miles    
Events Rain    
T = Trace of Precipitation, MM = Missing Value Source: NWS Daily Summary

Daily Weather History Graph

Daily Weather History Graph

Search for Another Location

Airport or City:

Trip Planner

Search our weather history database for the weather conditions in past years. The results will help you decide how hot, cold, wet, or windy it might be!

Date:

Astronomy

Oct. 18, 2012 Rise Set
Actual Time 7:18 AM EDT 6:16 PM EDT
Civil Twilight 6:50 AM EDT 6:44 PM EDT
Nautical Twilight 6:18 AM EDT 7:16 PM EDT
Astronomical Twilight 5:46 AM EDT 7:48 PM EDT
Moon 11:00 AM EDT (10/18) 8:46 PM EDT (10/18)
Length of Visible Light 11h 54m
Length of Day
10h 58m
Waxing Crescent, 14% of the Moon is Illuminated
Oct 18
Waxing Crescent
Oct 21
First Quarter
Oct 29
Full
Nov 6
Last Quarter
Nov 13
New

Hourly Weather History & Observations

Time (EDT) Temp. Windchill Dew Point Humidity Pressure Visibility Wind Dir Wind Speed Gust Speed Precip Events Conditions
12:54 AM 50.0 °F - 39.9 °F 68% 29.94 in 10.0 mi Calm Calm - N/A   Clear
1:54 AM 44.1 °F 42.5 °F 39.9 °F 85% 29.94 in 9.0 mi East 3.5 mph - N/A   Clear
2:54 AM 48.0 °F - 41.0 °F 77% 29.93 in 10.0 mi East 3.5 mph - N/A   Clear
3:54 AM 46.9 °F - 41.0 °F 80% 29.93 in 10.0 mi Variable 4.6 mph - N/A   Clear
4:54 AM 46.0 °F 43.9 °F 42.1 °F 86% 29.93 in 10.0 mi NW 4.6 mph - N/A   Clear
5:54 AM 52.0 °F - 44.1 °F 74% 29.92 in 10.0 mi Variable 5.8 mph 17.3 mph N/A   Clear
6:32 AM 51.8 °F - 44.6 °F 76% 29.95 in 10.0 mi Calm Calm - N/A   Mostly Cloudy
6:54 AM 52.0 °F - 46.0 °F 80% 29.94 in 10.0 mi Variable 4.6 mph - N/A   Mostly Cloudy
7:04 AM 51.8 °F - 46.4 °F 82% 29.95 in 10.0 mi Variable 5.8 mph - N/A   Scattered Clouds
7:54 AM 53.1 °F - 46.9 °F 80% 29.96 in 9.0 mi Variable 6.9 mph - N/A   Clear
8:44 AM 53.6 °F - 46.4 °F 77% 29.96 in 9.0 mi Variable 4.6 mph - N/A   Mostly Cloudy
8:54 AM 53.1 °F - 46.9 °F 80% 29.96 in 9.0 mi South 10.4 mph 17.3 mph N/A   Mostly Cloudy
9:02 AM 53.6 °F - 46.4 °F 77% 29.97 in 10.0 mi Variable 6.9 mph 17.3 mph N/A   Scattered Clouds
9:20 AM 53.6 °F - 46.4 °F 77% 29.97 in 10.0 mi South 6.9 mph 16.1 mph N/A   Mostly Cloudy
9:54 AM 55.9 °F - 48.0 °F 75% 29.97 in 10.0 mi Variable 6.9 mph - N/A   Scattered Clouds
10:08 AM 55.4 °F - 48.2 °F 77% 29.98 in 10.0 mi SSW 10.4 mph 16.1 mph N/A   Mostly Cloudy
10:54 AM 57.9 °F - 48.0 °F 70% 29.98 in 10.0 mi Variable 4.6 mph - N/A   Overcast
11:54 AM 57.9 °F - 46.9 °F 67% 29.95 in 10.0 mi South 10.4 mph 19.6 mph N/A   Mostly Cloudy
12:50 PM 60.8 °F - 46.4 °F 59% 29.96 in 10.0 mi South 10.4 mph 21.9 mph N/A   Overcast
12:54 PM 61.0 °F - 46.9 °F 60% 29.95 in 10.0 mi SSE 10.4 mph 19.6 mph N/A   Mostly Cloudy
1:54 PM 62.1 °F - 44.1 °F 52% 29.91 in 10.0 mi SSE 8.1 mph 23.0 mph N/A   Clear
2:54 PM 64.0 °F - 46.0 °F 52% 29.89 in 10.0 mi SSE 8.1 mph - N/A   Partly Cloudy
3:54 PM 64.0 °F - 44.1 °F 48% 29.89 in 10.0 mi South 11.5 mph 18.4 mph N/A   Clear
4:54 PM 64.0 °F - 43.0 °F 46% 29.90 in 10.0 mi SSE 9.2 mph 18.4 mph N/A   Partly Cloudy
5:54 PM 63.0 °F - 44.1 °F 50% 29.88 in 10.0 mi Variable 3.5 mph - N/A   Partly Cloudy
6:54 PM 61.0 °F - 45.0 °F 56% 29.91 in 10.0 mi Variable 3.5 mph - N/A   Clear
7:54 PM 61.0 °F - 46.9 °F 60% 29.92 in 10.0 mi Variable 5.8 mph - N/A   Mostly Cloudy
8:54 PM 60.1 °F - 50.0 °F 69% 29.91 in 10.0 mi Variable 4.6 mph - N/A   Mostly Cloudy
9:54 PM 60.1 °F - 51.1 °F 72% 29.88 in 10.0 mi SE 15.0 mph 26.5 mph N/A   Scattered Clouds
10:54 PM 59.0 °F - 53.1 °F 81% 29.89 in 8.0 mi Variable 4.6 mph - 0.02 in Rain Light Rain
11:02 PM 57.2 °F - 53.6 °F 88% 29.89 in 7.0 mi Calm Calm - 0.00 in Rain Light Rain
11:19 PM 57.2 °F - 53.6 °F 88% 29.89 in 4.0 mi East 5.8 mph - 0.04 in Rain Rain
11:54 PM 57.9 °F - 54.0 °F 87% 29.86 in 5.0 mi Variable 3.5 mph - 0.12 in Rain Rain